Weather History for Kankakee, IL

Change the Weather History Date:

Sunday, November 25, 2012

  Actual Average Record
Temperature  
Mean Temperature 37 °F -  
Max Temperature 45 °F 44 °F 66 °F (2006)
Min Temperature 29 °F 26 °F 8 °F (1991)
Degree Days  
Heating Degree Days 28    
Moisture  
Dew Point 27 °F    
Average Humidity 68    
Maximum Humidity 86    
Minimum Humidity 49    
Precipitation  
Precipitation 0.00 in - - ()
Sea Level Pressure  
Sea Level Pressure 29.94 in    
Wind  
Wind Speed 7 mph (WSW)    
Max Wind Speed 12 mph    
Max Gust Speed -    
Visibility 10 miles    
Events      
Averages and records for this station are not official NWS values.
T = Trace of Precipitation, MM = Missing Value Source: NWS Daily Summary

Daily Weather History Graph

Daily Weather History Graph

Search for Another Location

Airport:

Trip Planner

Search our weather history database for the weather conditions in past years. The results will help you decide how hot, cold, wet, or windy it might be!

Date:

Astronomy

Nov. 25, 2012 Rise Set
Actual Time 6:51 AM CST 4:25 PM CST
Civil Twilight 6:20 AM CST 4:55 PM CST
Nautical Twilight 5:47 AM CST 5:29 PM CST
Astronomical Twilight 5:14 AM CST 6:02 PM CST
Moon 2:43 PM CST (11/25) 4:03 AM CST (11/25)
Length of Visible Light 10h 35m
Length of Day
9h 34m
Waxing Gibbous, 93% of the Moon is Illuminated
Nov 25
Waxing Gibbous
Nov 28
Full
Dec 6
Last Quarter
Dec 13
New
Dec 19
First Quarter

Hourly Weather History & Observations

Time (CST) Temp. Windchill Dew Point Humidity Pressure Visibility Wind Dir Wind Speed Gust Speed Precip Events Conditions
12:15 AM 29.3 °F 22.3 °F 24.8 °F 83% 30.02 in 10.0 mi South 6.9 mph - N/A   Scattered Clouds
12:35 AM 29.7 °F 22.0 °F 25.0 °F 83% 30.01 in 10.0 mi South 8.1 mph - N/A   Mostly Cloudy
12:55 AM 29.8 °F 20.9 °F 25.3 °F 83% 29.97 in 10.0 mi South 10.4 mph - N/A   Mostly Cloudy
1:15 AM 30.0 °F 20.5 °F 25.3 °F 83% 29.97 in 10.0 mi South 11.5 mph - N/A   Mostly Cloudy
1:35 AM 30.0 °F 21.7 °F 25.3 °F 83% 29.95 in 10.0 mi South 9.2 mph - N/A   Overcast
1:55 AM 30.2 °F 21.3 °F 25.3 °F 82% 29.95 in 10.0 mi South 10.4 mph - N/A   Scattered Clouds
2:15 AM 30.2 °F 22.6 °F 25.5 °F 83% 29.94 in 10.0 mi SSE 8.1 mph - N/A   Scattered Clouds
2:35 AM 30.2 °F 22.6 °F 25.7 °F 83% 29.93 in 10.0 mi South 8.1 mph - N/A   Scattered Clouds
2:55 AM 30.6 °F 23.1 °F 25.7 °F 82% 29.92 in 10.0 mi South 8.1 mph - N/A   Scattered Clouds
3:15 AM 30.9 °F 22.2 °F 25.7 °F 81% 29.90 in 10.0 mi South 10.4 mph - N/A   Scattered Clouds
3:35 AM 31.3 °F 23.3 °F 25.7 °F 80% 29.89 in 10.0 mi South 9.2 mph - N/A   Overcast
3:55 AM 31.5 °F 22.9 °F 25.7 °F 79% 29.89 in 10.0 mi South 10.4 mph - N/A   Mostly Cloudy
4:15 AM 31.3 °F 23.9 °F 25.5 °F 79% 29.89 in 10.0 mi South 8.1 mph - N/A   Scattered Clouds
4:35 AM 32.0 °F 25.6 °F 25.7 °F 78% 29.89 in 10.0 mi SSW 6.9 mph - N/A   Mostly Cloudy
4:55 AM 32.0 °F 25.6 °F 25.3 °F 76% 29.89 in 10.0 mi SSW 6.9 mph - N/A   Mostly Cloudy
5:15 AM 31.5 °F 24.9 °F 25.2 °F 78% 29.89 in 10.0 mi SSW 6.9 mph - N/A   Scattered Clouds
5:35 AM 30.4 °F 23.6 °F 25.0 °F 80% 29.89 in 10.0 mi SSW 6.9 mph - N/A   Clear
5:55 AM 30.2 °F 24.3 °F 25.3 °F 82% 29.89 in 10.0 mi SW 5.8 mph - N/A   Clear
6:15 AM 29.3 °F 23.2 °F 25.0 °F 84% 29.87 in 10.0 mi South 5.8 mph - N/A   Clear
6:35 AM 29.7 °F 24.7 °F 25.2 °F 83% 29.88 in 10.0 mi SSW 4.6 mph - N/A   Clear
6:55 AM 29.8 °F 24.9 °F 25.3 °F 83% 29.88 in 10.0 mi South 4.6 mph - N/A   Clear
7:15 AM 29.3 °F 24.3 °F 25.5 °F 86% 29.89 in 10.0 mi SSW 4.6 mph - N/A   Clear
7:35 AM 29.8 °F 26.3 °F 25.7 °F 85% 29.89 in 10.0 mi SSW 3.5 mph - N/A   Clear
7:55 AM 30.4 °F 23.6 °F 26.4 °F 85% 29.89 in 10.0 mi SSW 6.9 mph - N/A   Clear
8:15 AM 31.6 °F 26.0 °F 26.6 °F 82% 29.90 in 10.0 mi SW 5.8 mph - N/A   Clear
8:35 AM 32.9 °F 27.5 °F 27.5 °F 81% 29.90 in 10.0 mi WSW 5.8 mph - N/A   Clear
8:55 AM 34.2 °F 27.5 °F 27.9 °F 78% 29.89 in 10.0 mi WSW 8.1 mph - N/A   Clear
9:15 AM 36.1 °F 29.9 °F 27.7 °F 71% 29.90 in 10.0 mi WSW 8.1 mph - N/A   Clear
9:35 AM 37.4 °F 30.3 °F 26.8 °F 66% 29.90 in 10.0 mi West 10.4 mph - N/A   Clear
9:55 AM 39.0 °F 31.8 °F 27.1 °F 62% 29.90 in 10.0 mi West 11.5 mph - N/A   Clear
10:15 AM 39.6 °F 32.5 °F 26.6 °F 60% 29.90 in 10.0 mi West 11.5 mph - N/A   Clear
10:35 AM 40.5 °F 34.1 °F 26.6 °F 58% 29.89 in 10.0 mi West 10.4 mph - N/A   Clear
10:55 AM 40.8 °F 34.5 °F 26.8 °F 57% 29.89 in 10.0 mi West 10.4 mph - N/A   Clear
11:15 AM 41.7 °F 36.7 °F 26.8 °F 55% 29.88 in 10.0 mi West 8.1 mph - N/A   Clear
11:35 AM 42.4 °F 37.5 °F 26.8 °F 54% 29.88 in 10.0 mi West 8.1 mph - N/A   Clear
11:55 AM 42.6 °F 38.4 °F 27.0 °F 54% 29.88 in 10.0 mi WNW 6.9 mph - N/A   Clear
12:15 PM 44.1 °F 38.6 °F 27.7 °F 53% 29.88 in 10.0 mi West 10.4 mph - N/A   Clear
12:35 PM 44.6 °F 40.7 °F 26.8 °F 50% 29.89 in 10.0 mi West 6.9 mph - N/A   Clear
12:55 PM 44.8 °F 41.0 °F 27.0 °F 50% 29.89 in 10.0 mi West 6.9 mph - N/A   Clear
1:15 PM 45.3 °F 40.6 °F 27.5 °F 50% 29.89 in 10.0 mi West 9.2 mph - N/A   Clear
1:35 PM 44.6 °F 39.2 °F 26.8 °F 50% 29.89 in 10.0 mi WNW 10.4 mph - N/A   Clear
1:55 PM 45.3 °F 40.1 °F 27.5 °F 50% 29.89 in 10.0 mi West 10.4 mph - N/A   Clear
2:15 PM 45.1 °F 40.8 °F 27.0 °F 49% 29.89 in 10.0 mi West 8.1 mph - N/A   Clear
2:35 PM 44.8 °F 39.4 °F 26.8 °F 49% 29.89 in 10.0 mi West 10.4 mph - N/A   Clear
2:55 PM 44.6 °F 39.2 °F 27.0 °F 50% 29.90 in 10.0 mi West 10.4 mph - N/A   Clear
3:15 PM 43.9 °F 39.3 °F 27.0 °F 51% 29.91 in 10.0 mi West 8.1 mph - N/A   Clear
3:35 PM 43.9 °F 41.3 °F 27.3 °F 52% 29.91 in 10.0 mi WNW 4.6 mph - N/A   Scattered Clouds
3:55 PM 43.7 °F 40.3 °F 27.3 °F 53% 29.92 in 10.0 mi NW 5.8 mph - N/A   Clear
4:15 PM 43.0 °F 40.3 °F 27.3 °F 54% 29.93 in 10.0 mi WNW 4.6 mph - N/A   Clear
4:35 PM 42.1 °F 39.2 °F 27.3 °F 56% 29.93 in 10.0 mi NW 4.6 mph - N/A   Clear
4:55 PM 41.5 °F 39.6 °F 27.3 °F 57% 29.94 in 10.0 mi WNW 3.5 mph - N/A   Clear
5:15 PM 41.2 °F 38.2 °F 27.5 °F 58% 29.95 in 10.0 mi NW 4.6 mph - N/A   Clear
5:35 PM 41.0 °F 38.0 °F 27.5 °F 59% 29.95 in 10.0 mi NW 4.6 mph - N/A   Clear
5:55 PM 40.6 °F 38.6 °F 27.5 °F 59% 29.96 in 10.0 mi West 3.5 mph - N/A   Clear
6:15 PM 39.2 °F 35.9 °F 27.5 °F 63% 29.97 in 10.0 mi West 4.6 mph - N/A   Scattered Clouds
6:35 PM 38.1 °F 34.6 °F 27.5 °F 66% 29.97 in 10.0 mi West 4.6 mph - N/A   Mostly Cloudy
6:55 PM 37.6 °F 33.1 °F 28.2 °F 69% 29.99 in 10.0 mi West 5.8 mph - N/A   Mostly Cloudy
7:15 PM 38.7 °F 35.2 °F 28.4 °F 67% 29.99 in 10.0 mi WNW 4.6 mph - N/A   Mostly Cloudy
7:35 PM 39.2 °F 35.0 °F 28.0 °F 64% 30.01 in 10.0 mi WNW 5.8 mph - N/A   Mostly Cloudy
7:55 PM 39.2 °F 37.0 °F 28.4 °F 65% 30.02 in 10.0 mi WNW 3.5 mph - N/A   Overcast
8:15 PM 38.7 °F - 28.8 °F 68% 30.02 in 10.0 mi Calm Calm - N/A   Overcast
8:35 PM 38.8 °F 35.4 °F 28.0 °F 65% 30.02 in 10.0 mi NW 4.6 mph - N/A   Overcast
8:55 PM 38.8 °F 36.5 °F 27.9 °F 65% 30.02 in 10.0 mi NW 3.5 mph - N/A   Overcast
9:15 PM 38.8 °F 36.5 °F 27.7 °F 64% 30.03 in 10.0 mi NW 3.5 mph - N/A   Overcast
9:35 PM 38.8 °F 36.5 °F 27.5 °F 64% 30.04 in 10.0 mi NW 3.5 mph - N/A   Overcast
9:55 PM 38.5 °F - 27.5 °F 65% 30.04 in 10.0 mi Calm Calm - N/A   Mostly Cloudy
10:15 PM 38.3 °F 34.8 °F 27.5 °F 65% 30.04 in 10.0 mi NNW 4.6 mph - N/A   Scattered Clouds
10:35 PM 38.1 °F 34.6 °F 27.0 °F 64% 30.04 in 10.0 mi NNW 4.6 mph - N/A   Scattered Clouds
10:55 PM 37.6 °F 34.0 °F 27.0 °F 66% 30.05 in 10.0 mi NNW 4.6 mph - N/A   Mostly Cloudy
11:15 PM 37.4 °F 34.9 °F 27.3 °F 67% 30.07 in 10.0 mi WNW 3.5 mph - N/A   Overcast
11:35 PM 36.5 °F 32.7 °F 28.2 °F 72% 30.08 in 10.0 mi West 4.6 mph - N/A   Overcast
11:55 PM 35.6 °F 30.7 °F 28.4 °F 75% 30.09 in 10.0 mi West 5.8 mph - N/A   Overcast